[Iaude] MPEC E88: 2015 KV167 [a=51.78,e=0.26,i=27.1,H=7.2]

mpec at mpcdb1.cfa.harvard.edu mpec at mpcdb1.cfa.harvard.edu
Tue Mar 13 17:01:16 EDT 2018


M.P.E.C. 2018-E88                                Issued 2018 Mar. 13, 20:58 UT
 
     The Minor Planet Electronic Circulars contain information on unusual
         minor planets and routine data on comets.  They are published
    on behalf of Division F of the International Astronomical Union by the
          Minor Planet Center, Smithsonian Astrophysical Observatory,
                          Cambridge, MA 02138, U.S.A.

             Prepared using the Tamkin Foundation Computer Network

                              MPC at CFA.HARVARD.EDU
            URL https://www.minorplanetcenter.net/    ISSN 1523-6714


                                  2015 KV167
 
Observations:
     K15KG7V*5C2015 05 18.31762 14 43 21.450+04 42 56.05         25.4 rcEE088568
     K15KG7V 5C2015 05 18.40098 14 43 21.191+04 42 56.92               cEE088568
     K15KG7V 5C2015 05 18.48649 14 43 20.932+04 42 57.78               cEE088568
     K15KG7V 5C2015 06 11.32152 14 42 15.740+04 45 21.77         25.2 rcEE088568
     K15KG7V 5C2015 06 12.32130 14 42 13.381+04 45 22.94               cEE088568
     K15KG7V  C2016 03 10.38472 14 48 48.131+04 20 32.95         25.2 rcEE088304
     K15KG7V 5C2016 04 10.49149 14 47 37.259+04 32 59.15         25.3 rcEE088568
     K15KG7V 5C2016 04 10.62356 14 47 36.877+04 33 02.17         25.2 rcEE088568
 
Observer details:
304 Las Campanas Observatory.  Observer S. S. Sheppard.  6.5-m Magellan-Baade
    telescope + CCD.
568 Mauna Kea.  Observers D. J. Tholen, C. Trujillo, S. S. Sheppard.  8.1-m
    reflector + CCD, 8.2-m reflector + CCD.
 
Orbital elements:
2015 KV167
Epoch 2018 Mar. 23.0 TT = JDT 2458200.5                 MPC
M 192.89917              (2000.0)            P               Q
n   0.00264496     Peri.  220.19573     +0.81834416     -0.57285048
a  51.7833353      Node   174.15753     +0.56998432     +0.81929426
e   0.2614826      Incl.   27.13292     -0.07369332     -0.02447934
P 373              H    7.2           G   0.15           U   8
Residuals in seconds of arc
150518 568  0.0   0.2-    150611 568  0.0   0.3+    160410 568  0.0   0.2-
150518 568  0.1-  0.2-    150612 568  0.2+  0.5+    160410 568  0.1-  0.1-
150518 568  0.1-  0.3-    160310 304  0.2+  0.2+

Ephemeris:
2015 KV167               a,e,i = 51.78, 0.26, 27                 q = 38.243
Date    TT    R. A. (2000) Decl.     Delta      r     Elong.  Phase     V
2018 02 11    14 53 56.0 +04 10 38  64.9076 65.1118   101.5     0.9    25.5
...
2018 02 26    14 53 50.0 +04 16 16  64.6754 65.1105   115.7     0.8    25.5
...
2018 03 06    14 53 41.5 +04 19 30  64.5628 65.1098   123.1     0.7    25.4
...
2018 03 12    14 53 32.8 +04 21 58  64.4851 65.1092   128.6     0.7    25.4
2018 03 13    14 53 31.1 +04 22 23  64.4728 65.1092   129.5     0.7    25.4
2018 03 14    14 53 29.4 +04 22 48  64.4607 65.1091   130.4     0.7    25.4
...
2018 03 20    14 53 18.3 +04 25 17  64.3922 65.1085   135.7     0.6    25.4
...
2018 03 28    14 53 01.0 +04 28 34  64.3132 65.1078   142.5     0.5    25.4
...
2018 04 12    14 52 22.2 +04 34 22  64.2068 65.1065   153.6     0.4    25.4

A. U. Tomatic                (C) Copyright 2018 MPC           M.P.E.C. 2018-E88



More information about the Iaude mailing list